Weather History for St. Joseph, MO

Change the Weather History Date:

Friday, June 7, 2013

  Actual Average Record
Temperature  
Mean Temperature 64 °F 72 °F  
Max Temperature 75 °F 83 °F 97 °F (1969)
Min Temperature 53 °F 61 °F 44 °F (1935)
Degree Days  
Heating Degree Days 1 0  
Month to date heating degree days 15 6  
Since 1 June heating degree days 15 6  
Since 1 July heating degree days 5614 5456  
Cooling Degree Days 0 7  
Month to date cooling degree days 5 46  
Year to date cooling degree days 131 159  
Since 1 June cooling degree days 5 46  
Growing Degree Days 14 (Base 50)    
Moisture  
Dew Point 51 °F    
Average Humidity 67    
Maximum Humidity 93    
Minimum Humidity 41    
Precipitation  
Precipitation 0.00 in 0.17 in 2.07 in (1957)
Month to date precipitation 0.38 1.14  
Year to date precipitation 14.43 14.09  
Sea Level Pressure  
Sea Level Pressure 29.97 in    
Wind  
Wind Speed 6 mph (NNE)    
Max Wind Speed 16 mph    
Max Gust Speed 23 mph    
Visibility 10 miles    
Events      
T = Trace of Precipitation, MM = Missing Value Source: NWS Daily Summary

Daily Weather History Graph

Daily Weather History Graph

Search for Another Location

Airport:

Trip Planner

Search our weather history database for the weather conditions in past years. The results will help you decide how hot, cold, wet, or windy it might be!

Date:

Astronomy

Jun. 07, 2013 Rise Set
Actual Time 5:51 AM CDT 8:45 PM CDT
Civil Twilight 5:19 AM CDT 9:18 PM CDT
Nautical Twilight 4:38 AM CDT 9:59 PM CDT
Astronomical Twilight 3:51 AM CDT 10:46 PM CDT
Moon 5:14 AM CDT (6/7) 8:00 PM CDT (6/7)
Length of Visible Light 15h 58m
Length of Day
14h 54m
Waning Crescent, 1% of the Moon is Illuminated
Jun 7
Waning Crescent
Jun 8
New
Jun 16
First Quarter
Jun 23
Full
Jun 29
Last Quarter

Hourly Weather History & Observations

Time (CDT) Temp. Dew Point Humidity Pressure Visibility Wind Dir Wind Speed Gust Speed Precip Events Conditions
12:53 AM 57.0 °F 54.0 °F 89% 29.97 in 10.0 mi Calm Calm - N/A   Clear
1:53 AM 55.0 °F 53.1 °F 93% 29.97 in 10.0 mi Calm Calm - N/A   Clear
2:53 AM 54.0 °F 52.0 °F 93% 29.97 in 10.0 mi North 3.5 mph - N/A   Clear
3:53 AM 55.0 °F 51.1 °F 86% 29.97 in 10.0 mi Calm Calm - 0.01 in   Clear
4:53 AM 54.0 °F 51.1 °F 90% 29.99 in 10.0 mi NNW 6.9 mph - N/A   Scattered Clouds
5:53 AM 54.0 °F 52.0 °F 93% 30.00 in 10.0 mi Calm Calm - N/A   Mostly Cloudy
6:53 AM 55.0 °F 52.0 °F 89% 30.00 in 10.0 mi North 5.8 mph - N/A   Scattered Clouds
7:53 AM 57.9 °F 54.0 °F 87% 30.01 in 10.0 mi North 4.6 mph - N/A   Overcast
8:53 AM 63.0 °F 54.0 °F 72% 30.02 in 10.0 mi North 3.5 mph - N/A   Clear
9:53 AM 66.0 °F 51.1 °F 59% 30.02 in 10.0 mi Variable 4.6 mph - N/A   Clear
10:53 AM 70.0 °F 52.0 °F 53% 30.01 in 10.0 mi North 13.8 mph - N/A   Partly Cloudy
11:53 AM 69.1 °F 51.1 °F 53% 30.01 in 10.0 mi NNW 11.5 mph - N/A   Scattered Clouds
12:53 PM 70.0 °F 50.0 °F 49% 30.00 in 10.0 mi North 12.7 mph - N/A   Mostly Cloudy
1:53 PM 73.0 °F 50.0 °F 44% 29.98 in 10.0 mi NNW 12.7 mph - N/A   Scattered Clouds
2:53 PM 73.9 °F 51.1 °F 45% 29.96 in 10.0 mi NNE 13.8 mph 23.0 mph N/A   Mostly Cloudy
3:53 PM 75.0 °F 50.0 °F 41% 29.96 in 10.0 mi North 11.5 mph 19.6 mph N/A   Mostly Cloudy
4:53 PM 73.9 °F 48.0 °F 40% 29.94 in 10.0 mi NNE 3.5 mph - N/A   Partly Cloudy
5:53 PM 73.9 °F 48.0 °F 40% 29.93 in 10.0 mi North 8.1 mph - N/A   Scattered Clouds
6:53 PM 73.0 °F 48.0 °F 41% 29.92 in 10.0 mi NE 6.9 mph - N/A   Partly Cloudy
7:53 PM 70.0 °F 48.0 °F 46% 29.91 in 10.0 mi ENE 5.8 mph - N/A   Clear
8:53 PM 66.0 °F 50.0 °F 56% 29.92 in 10.0 mi ENE 3.5 mph - N/A   Clear
9:53 PM 64.0 °F 50.0 °F 60% 29.92 in 10.0 mi East 4.6 mph - N/A   Clear
10:53 PM 62.1 °F 51.1 °F 67% 29.94 in 10.0 mi Calm Calm - N/A   Clear
11:53 PM 57.9 °F 52.0 °F 81% 29.95 in 10.0 mi Calm Calm - N/A   Clear